GW7390 Weather Reports


Display with metric or nautical units.
time (UTC)temp
F
wind
direction
speed
MPH
gust
MPH
rain 1hr
in
rain 24hr
in
rain mn
in
humidity
%
barometer
mb
20260509203057 53 329 1.0 1.0 0.00 0.20 0.20 75 1059.5
20260509202017 54 327 1.0 1.0 0.00 0.20 0.20 75 1059.1
20260509201017 54 325 1.0 1.0 0.00 0.20 0.20 74 1058.7
20260509200017 55 322 1.0 1.0 0.00 0.20 0.20 74 1058.2
20260509195017 56 320 1.0 1.0 0.00 0.20 0.20 73 1057.8
20260509194017 57 318 1.0 1.0 0.00 0.20 0.20 73 1057.3
20260509193017 58 315 1.0 2.0 0.00 0.20 0.20 72 1056.8
20260509192039 59 312 1.0 2.0 0.00 0.20 0.20 72 1056.3
20260509191016 59 310 1.0 2.0 0.00 0.20 0.20 72 1055.8
20260509190018 60 307 1.0 2.0 0.00 0.20 0.20 71 1055.3
20260509185017 61 304 2.0 2.0 0.00 0.20 0.20 71 1054.7
20260509184017 62 301 2.0 2.0 0.00 0.20 0.20 70 1054.2
20260509183117 62 298 2.0 2.0 0.00 0.20 0.20 70 1053.6
20260509182018 63 295 2.0 2.0 0.00 0.20 0.20 69 1053.1
20260509181037 64 292 2.0 2.0 0.00 0.20 0.20 69 1052.5
20260509180018 64 289 2.0 2.0 0.00 0.20 0.20 68 1051.9
20260509175016 65 286 2.0 2.0 0.00 0.20 0.20 68 1051.3
20260509174037 65 283 2.0 3.0 0.00 0.20 0.20 67 1050.7
20260509173017 66 280 2.0 3.0 0.00 0.20 0.20 67 1050.1
20260509172037 66 276 2.0 3.0 0.00 0.20 0.20 66 1049.4
20260509171018 67 273 2.0 3.0 0.00 0.20 0.20 65 1048.8
20260509170017 67 270 3.0 3.0 0.00 0.20 0.20 65 1048.2
20260509165016 68 266 3.0 3.0 0.00 0.20 0.20 64 1047.5
20260509164016 68 263 3.0 3.0 0.00 0.20 0.20 64 1046.9
20260509163017 69 259 3.0 3.0 0.00 0.20 0.20 63 1046.2
20260509162017 69 256 3.0 4.0 0.00 0.20 0.20 63 1045.5
20260509161018 69 252 3.0 4.0 0.00 0.20 0.20 62 1044.8
20260509160018 69 248 3.0 4.0 0.00 0.20 0.20 61 1044.2
20260509155018 70 245 3.0 4.0 0.00 0.20 0.20 61 1043.5
20260509154017 70 241 3.0 4.0 0.00 0.20 0.20 60 1042.8
20260509153118 70 237 3.0 4.0 0.00 0.20 0.20 60 1042.1
20260509152016 70 234 4.0 4.0 0.00 0.20 0.20 59 1041.3
20260509151158 70 230 4.0 4.0 0.00 0.20 0.20 58 1040.6
20260509150017 70 226 4.0 4.0 0.00 0.20 0.20 58 1039.9
20260509145017 70 222 4.0 5.0 0.00 0.20 0.20 57 1039.2
20260509144016 70 218 4.0 5.0 0.00 0.20 0.20 56 1038.5
20260509143017 70 215 4.0 5.0 0.00 0.20 0.20 56 1037.7
20260509142018 70 211 4.0 5.0 0.00 0.20 0.20 55 1037.0
20260509141017 70 207 4.0 5.0 0.00 0.20 0.20 54 1036.3
20260509140017 69 203 4.0 5.0 0.00 0.20 0.20 54 1035.5
20260509135017 69 199 4.0 5.0 0.00 0.20 0.20 53 1034.8
20260509134016 69 195 5.0 6.0 0.00 0.20 0.20 53 1034.0
20260509133016 68 191 5.0 6.0 0.00 0.20 0.20 52 1033.3
20260509132016 68 187 5.0 6.0 0.00 0.20 0.20 51 1032.6
20260509131017 68 183 5.0 6.0 0.00 0.20 0.20 51 1031.8
20260509130016 67 179 5.0 6.0 0.00 0.20 0.20 50 1031.1
20260509125017 67 176 5.0 6.0 0.00 0.20 0.20 49 1030.3
20260509124017 66 172 5.0 6.0 0.00 0.20 0.20 49 1029.6
20260509123017 66 168 5.0 6.0 0.00 0.20 0.20 48 1028.8
20260509122018 65 164 5.0 7.0 0.00 0.20 0.20 47 1028.1
20260509121018 65 160 6.0 7.0 0.00 0.20 0.20 47 1027.3
20260509120017 64 156 6.0 7.0 0.00 0.20 0.20 46 1026.6
20260509115017 63 152 6.0 7.0 0.00 0.20 0.20 45 1025.9
20260509114016 63 148 6.0 7.0 0.00 0.20 0.20 45 1025.1
20260509113017 62 144 6.0 7.0 0.00 0.20 0.20 44 1024.4
20260509112016 61 141 6.0 7.0 0.00 0.20 0.20 43 1023.7
20260509111016 61 137 6.0 7.0 0.00 0.20 0.20 43 1022.9
20260509110016 60 133 6.0 8.0 0.00 0.20 0.20 42 1022.2
20260509105016 59 129 6.0 8.0 0.01 0.20 0.20 42 1021.5
20260509104017 58 125 7.0 8.0 0.02 0.20 0.20 41 1020.8
20260509103017 58 122 7.0 8.0 0.03 0.20 0.20 40 1020.1
20260509102017 57 118 7.0 8.0 0.04 0.20 0.20 40 1019.4
20260509101017 56 114 7.0 8.0 0.05 0.20 0.20 39 1018.7
20260509100017 55 111 7.0 8.0 0.06 0.20 0.20 38 1018.0
20260509095016 54 107 7.0 8.0 0.06 0.20 0.19 38 1017.3
20260509094017 53 103 7.0 9.0 0.06 0.20 0.18 37 1016.6
20260509093017 52 100 7.0 9.0 0.07 0.20 0.17 37 1016.0
20260509092017 52 96 7.0 9.0 0.07 0.20 0.16 36 1015.3
20260509091017 51 93 7.0 9.0 0.07 0.20 0.15 35 1014.6
20260509090016 50 90 8.0 9.0 0.07 0.20 0.14 35 1014.0
20260509085017 49 86 8.0 9.0 0.07 0.20 0.13 34 1013.3
20260509084016 48 83 8.0 9.0 0.07 0.20 0.12 34 1012.7
20260509083017 47 80 8.0 9.0 0.06 0.20 0.10 33 1012.1
20260509082017 46 76 8.0 9.0 0.06 0.20 0.09 33 1011.5
20260509081017 46 73 8.0 10.0 0.06 0.20 0.08 32 1010.9
20260509080017 45 70 8.0 10.0 0.07 0.20 0.07 32 1010.3
20260509075017 44 67 8.0 10.0 0.06 0.20 0.06 31 1009.7
20260509074017 43 64 8.0 10.0 0.05 0.20 0.05 31 1009.1
20260509073017 42 61 8.0 10.0 0.04 0.20 0.04 30 1008.5
20260509072017 41 58 8.0 10.0 0.03 0.20 0.03 30 1008.0
20260509071017 41 55 8.0 10.0 0.02 0.20 0.02 29 1007.5
20260509070017 40 52 9.0 10.0 0.00 0.20 0.00 29 1006.9
20260509065017 39 50 9.0 10.0 0.00 0.20 0.20 28 1006.4
20260509064017 38 47 9.0 10.0 0.00 0.20 0.20 28 1005.9
20260509063017 38 44 9.0 11.0 0.00 0.20 0.20 27 1005.4
20260509062037 37 42 9.0 11.0 0.00 0.20 0.20 27 1004.9
20260509061017 36 39 9.0 11.0 0.00 0.20 0.20 27 1004.4
20260509060017 36 37 9.0 11.0 0.00 0.20 0.20 26 1004.0
20260509055016 35 35 9.0 11.0 0.00 0.20 0.20 26 1003.5
20260509054057 35 32 9.0 11.0 0.00 0.20 0.20 25 1003.1
20260509053017 34 30 9.0 11.0 0.00 0.20 0.20 25 1002.7
20260509052017 34 28 9.0 11.0 0.00 0.20 0.20 25 1002.3
20260509051037 33 26 9.0 11.0 0.00 0.20 0.20 24 1001.9
20260509050018 33 24 9.0 11.0 0.00 0.20 0.20 24 1001.5
20260509045017 32 22 9.0 11.0 0.00 0.20 0.20 24 1001.1
20260509044016 32 20 9.0 11.0 0.00 0.20 0.20 23 1000.8
20260509043017 31 18 9.0 11.0 0.00 0.20 0.20 23 1000.5
20260509042016 31 17 10.0 11.0 0.00 0.20 0.20 23 1000.1
20260509041016 31 15 10.0 12.0 0.00 0.20 0.20 23 999.8
20260509040017 31 14 10.0 12.0 0.00 0.20 0.20 22 999.5
20260509035017 30 12 10.0 12.0 0.00 0.20 0.20 22 999.3
20260509034017 30 11 10.0 12.0 0.00 0.20 0.20 22 999.0
20260509033017 30 9 10.0 12.0 0.00 0.20 0.20 22 998.8
20260509032017 30 8 10.0 12.0 0.00 0.20 0.20 21 998.5
20260509031037 30 7 10.0 12.0 0.00 0.20 0.20 21 998.3
20260509030017 30 6 10.0 12.0 0.00 0.20 0.20 21 998.1
20260509025017 30 5 10.0 12.0 0.00 0.20 0.20 21 997.9
20260509024118 30 4 10.0 12.0 0.00 0.20 0.20 21 997.8
20260509023016 30 3 10.0 12.0 0.00 0.20 0.20 21 997.6
20260509022017 30 3 10.0 12.0 0.00 0.20 0.20 20 997.5
20260509021017 30 2 10.0 12.0 0.00 0.20 0.20 20 997.4
20260509020158 31 1 10.0 12.0 0.00 0.20 0.20 20 997.3
20260509015017 31 1 10.0 12.0 0.00 0.20 0.20 20 997.2
20260509014017 31 1 10.0 12.0 0.00 0.20 0.20 20 997.1
20260509013157 32 0 10.0 12.0 0.00 0.20 0.20 20 997.0
20260509012016 32 0 10.0 12.0 0.00 0.20 0.20 20 997.0
20260509011017 32 0 10.0 12.0 0.00 0.20 0.20 20 997.0
20260509010016 33 0 10.0 12.0 0.00 0.20 0.20 20 997.0
20260509005017 33 0 10.0 12.0 0.00 0.20 0.20 20 997.0
20260509004016 34 0 10.0 12.0 0.00 0.20 0.20 20 997.0
20260509003037 34 0 10.0 12.0 0.00 0.20 0.20 20 997.1
20260509002017 35 1 10.0 12.0 0.00 0.20 0.20 20 997.1
20260509001016 35 1 10.0 12.0 0.00 0.20 0.20 20 997.2
20260509000017 36 2 10.0 12.0 0.00 0.20 0.20 20 997.3
20260508235017 37 2 10.0 12.0 0.00 0.20 0.20 20 997.4
20260508234017 37 3 10.0 12.0 0.00 0.20 0.20 20 997.5
20260508233037 38 4 10.0 12.0 0.00 0.20 0.20 21 997.7
20260508232017 39 4 10.0 12.0 0.00 0.20 0.20 21 997.8
20260508231017 39 5 10.0 12.0 0.00 0.20 0.20 21 998.0
20260508230017 40 6 10.0 12.0 0.00 0.20 0.20 21 998.2
20260508225017 41 7 10.0 12.0 0.00 0.20 0.20 21 998.4
20260508224018 42 8 10.0 12.0 0.00 0.20 0.20 21 998.6
20260508223016 42 10 10.0 12.0 0.00 0.20 0.20 22 998.8
20260508222057 43 11 10.0 12.0 0.00 0.20 0.20 22 999.1
20260508221017 44 12 10.0 12.0 0.00 0.20 0.20 22 999.3
20260508220020 45 14 10.0 12.0 0.00 0.20 0.20 22 999.6
20260508215017 46 15 10.0 11.0 0.00 0.20 0.20 23 999.9
20260508214017 47 17 10.0 11.0 0.00 0.20 0.20 23 1000.2
20260508213021 48 19 9.0 11.0 0.00 0.20 0.20 23 1000.5
20260508212018 48 21 9.0 11.0 0.00 0.20 0.20 23 1000.9
20260508211017 49 22 9.0 11.0 0.00 0.20 0.20 24 1001.2
20260508210057 50 24 9.0 11.0 0.00 0.20 0.20 24 1001.6
20260508205016 51 26 9.0 11.0 0.00 0.20 0.20 24 1002.0
20260508204018 52 28 9.0 11.0 0.00 0.20 0.20 25 1002.4